AVA159 SKRG-SEQM

Flight info

Callsign AVA159
Flight time 1h 9m
Altitude 35000
Route RNG2B RNG UP778 QIT DCT
Aircraft A320/M-SDE3FGHIRWY/LB1

Departure

Time 2026-04-25 02:19
Airport Jose Maria Córdova International Airport (SKRG)

Arrival

Time 2026-04-25 03:29
Airport Mariscal Sucre International Airport (SEQM)
Time Latitude Longitude Altitude Speed Heading
2026-04-25 01:49 6.17202 -75.42708 7040 ft 0 kts 251°
2026-04-25 02:07 6.17208 -75.42694 7012 ft 2 kts 246°
2026-04-25 02:07 6.17215 -75.42680 7048 ft 2 kts 242°
2026-04-25 02:07 6.17224 -75.42668 7043 ft 2 kts 233°
2026-04-25 02:08 6.17233 -75.42655 7045 ft 2 kts 233°
2026-04-25 02:08 6.17243 -75.42641 7044 ft 3 kts 233°
2026-04-25 02:08 6.17261 -75.42628 7046 ft 3 kts 200°
2026-04-25 02:08 6.17281 -75.42620 7045 ft 3 kts 191°
2026-04-25 02:09 6.17283 -75.42619 7044 ft 0 kts 177°
2026-04-25 02:11 6.17259 -75.42618 7047 ft 5 kts 178°
2026-04-25 02:11 6.17223 -75.42617 7046 ft 9 kts 178°
2026-04-25 02:11 6.17155 -75.42615 7047 ft 9 kts 179°
2026-04-25 02:12 6.17093 -75.42612 7046 ft 9 kts 172°
2026-04-25 02:12 6.17041 -75.42595 7047 ft 7 kts 152°
2026-04-25 02:12 6.16983 -75.42557 7047 ft 12 kts 150°
2026-04-25 02:12 6.16856 -75.42490 7050 ft 24 kts 157°
2026-04-25 02:13 6.16714 -75.42480 7049 ft 20 kts 178°
2026-04-25 02:13 6.16548 -75.42479 7048 ft 26 kts 175°
2026-04-25 02:13 6.16374 -75.42477 7045 ft 25 kts 178°
2026-04-25 02:13 6.16205 -75.42475 7045 ft 25 kts 181°
2026-04-25 02:14 6.16028 -75.42479 7047 ft 25 kts 181°
2026-04-25 02:14 6.15865 -75.42478 7047 ft 22 kts 180°
2026-04-25 02:14 6.15725 -75.42475 7046 ft 18 kts 184°
2026-04-25 02:14 6.15612 -75.42476 7052 ft 16 kts 180°
2026-04-25 02:15 6.15442 -75.42476 7051 ft 31 kts 180°
2026-04-25 02:15 6.15206 -75.42475 7051 ft 34 kts 178°
2026-04-25 02:15 6.15013 -75.42474 7050 ft 12 kts 180°
2026-04-25 02:15 6.14980 -75.42474 7050 ft 0 kts 179°
2026-04-25 02:16 6.14958 -75.42473 7050 ft 10 kts 179°
2026-04-25 02:16 6.14893 -75.42450 7046 ft 9 kts 129°
2026-04-25 02:16 6.14887 -75.42417 7049 ft 0 kts 94°
2026-04-25 02:17 6.14887 -75.42416 7049 ft 0 kts 94°
2026-04-25 02:17 6.14885 -75.42370 7050 ft 11 kts 89°
2026-04-25 02:17 6.14904 -75.42303 7050 ft 9 kts 38°
2026-04-25 02:17 6.14935 -75.42297 7050 ft 0 kts 356°
2026-04-25 02:19 6.15021 -75.42300 7055 ft 40 kts 359°
2026-04-25 02:19 6.15551 -75.42309 7057 ft 110 kts 359°
2026-04-25 02:19 6.16512 -75.42321 7046 ft 165 kts 359°
2026-04-25 02:19 6.17711 -75.42354 7568 ft 173 kts 358°
2026-04-25 02:20 6.18966 -75.42391 7997 ft 191 kts 358°
2026-04-25 02:20 6.20325 -75.42405 8677 ft 195 kts 359°
2026-04-25 02:20 6.21679 -75.42095 9116 ft 210 kts 33°
2026-04-25 02:20 6.22613 -75.40955 9474 ft 219 kts 71°
2026-04-25 02:21 6.22654 -75.39437 9934 ft 224 kts 110°
2026-04-25 02:21 6.21848 -75.38102 10442 ft 225 kts 127°
2026-04-25 02:21 6.21231 -75.37261 10750 ft 227 kts 127°
2026-04-25 02:21 6.20290 -75.35987 11231 ft 228 kts 127°
2026-04-25 02:22 6.19339 -75.34700 11703 ft 230 kts 127°
2026-04-25 02:22 6.18382 -75.33402 12196 ft 232 kts 127°
2026-04-25 02:22 6.16964 -75.31793 12727 ft 238 kts 151°
2026-04-25 02:22 6.15339 -75.31405 12836 ft 252 kts 189°
2026-04-25 02:23 6.13713 -75.32134 12996 ft 268 kts 226°
2026-04-25 02:23 6.12617 -75.33711 13197 ft 287 kts 242°
2026-04-25 02:23 6.11375 -75.35377 13355 ft 311 kts 224°
2026-04-25 02:23 6.09567 -75.36717 13492 ft 335 kts 212°
2026-04-25 02:24 6.08176 -75.37471 13576 ft 350 kts 207°
2026-04-25 02:24 6.05152 -75.38802 14134 ft 364 kts 204°
2026-04-25 02:24 6.02796 -75.39766 14664 ft 368 kts 204°
2026-04-25 02:24 6.00425 -75.40764 15202 ft 371 kts 204°
2026-04-25 02:25 5.98822 -75.41470 15576 ft 374 kts 205°
2026-04-25 02:25 5.96424 -75.42510 16113 ft 377 kts 204°
2026-04-25 02:25 5.94004 -75.43484 16622 ft 381 kts 202°
2026-04-25 02:25 5.91514 -75.44436 17147 ft 385 kts 201°
2026-04-25 02:26 5.88989 -75.45377 17662 ft 389 kts 201°
2026-04-25 02:26 5.86443 -75.46323 18177 ft 392 kts 201°
2026-04-25 02:26 5.83872 -75.47288 18666 ft 396 kts 202°
2026-04-25 02:26 5.81283 -75.48269 19096 ft 399 kts 202°
2026-04-25 02:27 5.78677 -75.49267 19540 ft 403 kts 202°
2026-04-25 02:27 5.76053 -75.50278 20007 ft 406 kts 202°
2026-04-25 02:27 5.73407 -75.51300 20474 ft 409 kts 202°
2026-04-25 02:27 5.70776 -75.52316 20932 ft 412 kts 202°
2026-04-25 02:28 5.68088 -75.53352 21367 ft 415 kts 202°
2026-04-25 02:28 5.65378 -75.54395 21806 ft 419 kts 202°
2026-04-25 02:28 5.62647 -75.55447 22240 ft 422 kts 202°
2026-04-25 02:28 5.59897 -75.56505 22676 ft 425 kts 202°
2026-04-25 02:29 5.57124 -75.57572 23077 ft 428 kts 202°
2026-04-25 02:29 5.54327 -75.58644 23469 ft 431 kts 202°
2026-04-25 02:29 5.51516 -75.59721 23826 ft 435 kts 202°
2026-04-25 02:29 5.48679 -75.60809 24144 ft 438 kts 202°
2026-04-25 02:30 5.45831 -75.61901 24491 ft 440 kts 202°
2026-04-25 02:30 5.43005 -75.62986 24834 ft 441 kts 201°
2026-04-25 02:30 5.40135 -75.64089 25157 ft 442 kts 201°
2026-04-25 02:30 5.37256 -75.65196 25495 ft 444 kts 201°
2026-04-25 02:31 5.34369 -75.66306 25817 ft 445 kts 201°
2026-04-25 02:31 5.31467 -75.67420 26113 ft 448 kts 201°
2026-04-25 02:31 5.28555 -75.68537 26460 ft 449 kts 201°
2026-04-25 02:31 5.25634 -75.69657 26791 ft 450 kts 200°
2026-04-25 02:32 5.22704 -75.70780 27113 ft 452 kts 200°
2026-04-25 02:32 5.19766 -75.71907 27447 ft 453 kts 200°
2026-04-25 02:32 5.16817 -75.73037 27763 ft 454 kts 200°
2026-04-25 02:32 5.13901 -75.74153 28070 ft 455 kts 200°
2026-04-25 02:33 5.10939 -75.75290 28358 ft 457 kts 200°
2026-04-25 02:33 5.07964 -75.76432 28643 ft 458 kts 199°
2026-04-25 02:33 5.04980 -75.77576 28920 ft 460 kts 199°
2026-04-25 02:33 5.01988 -75.78723 29158 ft 461 kts 199°
2026-04-25 02:34 4.98982 -75.79873 29411 ft 463 kts 199°
2026-04-25 02:34 4.95970 -75.81026 29657 ft 464 kts 199°
2026-04-25 02:34 4.92945 -75.82185 29907 ft 466 kts 199°
2026-04-25 02:34 4.89916 -75.83347 30166 ft 467 kts 199°
2026-04-25 02:35 4.86879 -75.84512 30371 ft 468 kts 199°
2026-04-25 02:35 4.83872 -75.85665 30551 ft 469 kts 198°
2026-04-25 02:35 4.80826 -75.86830 30790 ft 469 kts 198°
2026-04-25 02:35 4.77782 -75.87998 31037 ft 468 kts 198°
2026-04-25 02:36 4.74741 -75.89163 31276 ft 468 kts 198°
2026-04-25 02:36 4.71704 -75.90325 31526 ft 466 kts 198°
2026-04-25 02:36 4.68676 -75.91484 31786 ft 466 kts 198°
2026-04-25 02:36 4.65653 -75.92643 32050 ft 465 kts 198°
2026-04-25 02:37 4.62646 -75.93795 32274 ft 464 kts 198°
2026-04-25 02:37 4.59626 -75.94951 32554 ft 463 kts 198°
2026-04-25 02:37 4.56625 -75.96098 32825 ft 461 kts 198°
2026-04-25 02:37 4.53666 -75.97228 33104 ft 460 kts 198°
2026-04-25 02:38 4.50677 -75.98374 33391 ft 459 kts 198°
2026-04-25 02:38 4.47699 -75.99517 33675 ft 458 kts 198°
2026-04-25 02:38 4.44720 -76.00659 33959 ft 457 kts 198°
2026-04-25 02:38 4.41752 -76.01795 34218 ft 457 kts 198°
2026-04-25 02:39 4.38779 -76.02932 34447 ft 457 kts 198°
2026-04-25 02:39 4.35814 -76.04068 34688 ft 456 kts 198°
2026-04-25 02:39 4.32849 -76.05205 34911 ft 456 kts 198°
2026-04-25 02:39 4.29888 -76.06342 35053 ft 456 kts 198°
2026-04-25 02:40 4.26968 -76.07457 35094 ft 455 kts 198°
2026-04-25 02:40 4.21062 -76.09708 35092 ft 454 kts 198°
2026-04-25 02:41 4.15162 -76.11961 35091 ft 454 kts 198°
2026-04-25 02:41 4.09258 -76.14215 35115 ft 454 kts 198°
2026-04-25 02:42 4.03360 -76.16476 35116 ft 454 kts 198°
2026-04-25 02:42 3.97500 -76.18724 35126 ft 454 kts 198°
2026-04-25 02:43 3.91596 -76.20980 35124 ft 454 kts 198°
2026-04-25 02:43 3.85689 -76.23228 35094 ft 454 kts 198°
2026-04-25 02:44 3.79783 -76.25482 35090 ft 454 kts 198°
2026-04-25 02:44 3.73918 -76.27724 35095 ft 454 kts 198°
2026-04-25 02:45 3.68006 -76.29981 35087 ft 455 kts 198°
2026-04-25 02:45 3.62093 -76.32243 35084 ft 455 kts 198°
2026-04-25 02:46 3.56175 -76.34508 35080 ft 456 kts 198°
2026-04-25 02:46 3.50286 -76.36761 35059 ft 456 kts 198°
2026-04-25 02:47 3.44352 -76.39017 35064 ft 456 kts 198°
2026-04-25 02:47 3.38512 -76.41530 35067 ft 460 kts 207°
2026-04-25 02:48 3.32954 -76.44710 35063 ft 460 kts 207°
2026-04-25 02:48 3.27430 -76.47853 35064 ft 460 kts 206°
2026-04-25 02:49 3.21866 -76.51019 35064 ft 460 kts 207°
2026-04-25 02:49 3.16309 -76.54186 35067 ft 460 kts 207°
2026-04-25 02:50 3.10748 -76.57355 35079 ft 460 kts 207°
2026-04-25 02:50 3.05192 -76.60521 35080 ft 460 kts 207°
2026-04-25 02:51 2.99657 -76.63678 35072 ft 465 kts 207°
2026-04-25 02:51 2.94008 -76.66900 35071 ft 465 kts 207°
2026-04-25 02:52 2.88415 -76.70088 35071 ft 461 kts 207°
2026-04-25 02:52 2.82840 -76.73252 35076 ft 461 kts 207°
2026-04-25 02:53 2.77298 -76.76395 35089 ft 461 kts 207°
2026-04-25 02:53 2.71720 -76.79569 35092 ft 461 kts 207°
2026-04-25 02:54 2.66150 -76.82751 35112 ft 461 kts 207°
2026-04-25 02:54 2.60570 -76.85932 35122 ft 462 kts 207°
2026-04-25 02:55 2.55036 -76.89080 35083 ft 462 kts 207°
2026-04-25 02:55 2.49435 -76.92263 35093 ft 462 kts 207°
2026-04-25 02:56 2.43843 -76.95447 35078 ft 462 kts 207°
2026-04-25 02:56 2.38249 -76.98626 35081 ft 463 kts 207°
2026-04-25 02:57 2.32649 -77.01804 35091 ft 463 kts 207°
2026-04-25 02:57 2.27091 -77.04968 35092 ft 463 kts 207°
2026-04-25 02:58 2.21497 -77.08154 35089 ft 463 kts 207°
2026-04-25 02:58 2.15886 -77.11346 35078 ft 464 kts 207°
2026-04-25 02:59 2.10268 -77.14538 35078 ft 465 kts 207°
2026-04-25 02:59 2.04681 -77.17711 35071 ft 465 kts 207°
2026-04-25 03:00 1.99057 -77.20915 35073 ft 465 kts 207°
2026-04-25 03:00 1.93427 -77.24118 35066 ft 466 kts 207°
2026-04-25 03:01 1.87796 -77.27318 35068 ft 466 kts 207°
2026-04-25 03:01 1.82196 -77.30497 35068 ft 466 kts 207°
2026-04-25 03:02 1.76555 -77.33694 35078 ft 466 kts 207°
2026-04-25 03:02 1.70918 -77.36893 35079 ft 466 kts 207°
2026-04-25 03:03 1.65281 -77.40102 35072 ft 466 kts 207°
2026-04-25 03:03 1.59641 -77.43306 35088 ft 466 kts 207°
2026-04-25 03:04 1.54035 -77.46486 35089 ft 466 kts 207°
2026-04-25 03:04 1.48397 -77.49688 35130 ft 466 kts 207°
2026-04-25 03:05 1.39942 -77.54504 35171 ft 466 kts 207°
2026-04-25 03:05 1.34303 -77.57714 35159 ft 467 kts 207°
2026-04-25 03:06 1.28696 -77.60896 35177 ft 467 kts 207°
2026-04-25 03:06 1.23047 -77.64099 35165 ft 467 kts 207°
2026-04-25 03:07 1.17395 -77.67302 35253 ft 468 kts 206°
2026-04-25 03:07 1.11739 -77.70509 35301 ft 467 kts 207°
2026-04-25 03:08 1.06130 -77.73696 35353 ft 467 kts 207°
2026-04-25 03:08 1.00479 -77.76915 35412 ft 468 kts 207°
2026-04-25 03:09 0.94826 -77.80136 35430 ft 468 kts 207°
2026-04-25 03:09 0.91996 -77.81745 35230 ft 468 kts 207°
2026-04-25 03:09 0.89162 -77.83350 35260 ft 468 kts 207°
2026-04-25 03:10 0.83536 -77.86534 35259 ft 468 kts 207°
2026-04-25 03:10 0.78132 -77.90085 35257 ft 455 kts 214°
2026-04-25 03:11 0.75645 -77.91950 35257 ft 439 kts 214°
2026-04-25 03:11 0.73246 -77.93743 35284 ft 423 kts 214°
2026-04-25 03:11 0.70921 -77.95474 35279 ft 412 kts 213°
2026-04-25 03:11 0.68634 -77.97170 35278 ft 408 kts 214°
2026-04-25 03:12 0.64115 -78.00524 35272 ft 407 kts 214°
2026-04-25 03:12 0.59571 -78.03907 35308 ft 407 kts 214°
2026-04-25 03:13 0.55032 -78.07288 35310 ft 407 kts 214°
2026-04-25 03:13 0.50491 -78.10661 35286 ft 407 kts 214°
2026-04-25 03:14 0.45955 -78.14038 35294 ft 407 kts 214°
2026-04-25 03:14 0.41447 -78.17396 35283 ft 408 kts 214°
2026-04-25 03:15 0.39128 -78.19121 34448 ft 424 kts 213°
2026-04-25 03:15 0.36746 -78.20891 33311 ft 428 kts 213°
2026-04-25 03:15 0.34351 -78.22673 32195 ft 431 kts 213°
2026-04-25 03:15 0.31937 -78.24469 31121 ft 434 kts 213°
2026-04-25 03:16 0.29518 -78.26269 30417 ft 434 kts 213°
2026-04-25 03:16 0.27091 -78.28078 29717 ft 435 kts 214°
2026-04-25 03:16 0.24669 -78.29883 29108 ft 434 kts 214°
2026-04-25 03:16 0.22284 -78.31659 28488 ft 433 kts 214°
2026-04-25 03:17 0.19873 -78.33455 27866 ft 433 kts 214°
2026-04-25 03:17 0.17457 -78.35254 27241 ft 432 kts 215°
2026-04-25 03:17 0.15049 -78.37048 26643 ft 431 kts 215°
2026-04-25 03:17 0.12646 -78.38838 26071 ft 431 kts 216°
2026-04-25 03:18 0.10247 -78.40625 25411 ft 430 kts 216°
2026-04-25 03:18 0.07850 -78.42411 24809 ft 429 kts 216°
2026-04-25 03:18 0.05457 -78.44192 24214 ft 429 kts 217°
2026-04-25 03:18 0.03098 -78.45948 23604 ft 428 kts 217°
2026-04-25 03:19 0.00721 -78.47714 23034 ft 420 kts 216°
2026-04-25 03:19 -0.01721 -78.49194 22619 ft 403 kts 205°
2026-04-25 03:19 -0.04291 -78.50139 22157 ft 386 kts 193°
2026-04-25 03:19 -0.06888 -78.50572 21693 ft 371 kts 183°
2026-04-25 03:20 -0.09417 -78.50542 21249 ft 357 kts 173°
2026-04-25 03:20 -0.11842 -78.50283 20814 ft 345 kts 173°
2026-04-25 03:20 -0.14196 -78.50035 20384 ft 335 kts 174°
2026-04-25 03:20 -0.16483 -78.49826 19964 ft 325 kts 175°
2026-04-25 03:21 -0.18677 -78.49653 19559 ft 317 kts 175°
2026-04-25 03:21 -0.20854 -78.49494 19141 ft 310 kts 176°
2026-04-25 03:21 -0.22979 -78.49340 18738 ft 303 kts 176°
2026-04-25 03:21 -0.25067 -78.49185 18132 ft 302 kts 176°
2026-04-25 03:22 -0.27175 -78.49024 17492 ft 307 kts 176°
2026-04-25 03:22 -0.29315 -78.48857 17029 ft 310 kts 175°
2026-04-25 03:22 -0.31476 -78.48688 16611 ft 313 kts 175°
2026-04-25 03:22 -0.33653 -78.48517 16176 ft 316 kts 175°
2026-04-25 03:23 -0.35838 -78.48221 15721 ft 318 kts 163°
2026-04-25 03:23 -0.37854 -78.47309 15297 ft 321 kts 148°
2026-04-25 03:23 -0.39687 -78.46023 14849 ft 323 kts 140°
2026-04-25 03:23 -0.41319 -78.44469 14398 ft 326 kts 131°
2026-04-25 03:24 -0.42483 -78.42582 13967 ft 326 kts 106°
2026-04-25 03:24 -0.42606 -78.40357 13611 ft 322 kts 77°
2026-04-25 03:24 -0.41623 -78.38397 13371 ft 315 kts 47°
2026-04-25 03:24 -0.39842 -78.37191 13049 ft 311 kts 20°
2026-04-25 03:25 -0.37759 -78.36613 12649 ft 311 kts 13°
2026-04-25 03:25 -0.35659 -78.36126 12242 ft 310 kts 13°
2026-04-25 03:25 -0.33561 -78.35641 11843 ft 309 kts 13°
2026-04-25 03:25 -0.31490 -78.35164 11462 ft 300 kts 12°
2026-04-25 03:26 -0.29465 -78.34905 11105 ft 288 kts
2026-04-25 03:26 -0.27533 -78.34819 10745 ft 275 kts
2026-04-25 03:26 -0.25696 -78.34859 10408 ft 253 kts 358°
2026-04-25 03:26 -0.24005 -78.34941 10072 ft 235 kts 358°
2026-04-25 03:27 -0.22428 -78.35013 9747 ft 218 kts 358°
2026-04-25 03:27 -0.20972 -78.35076 9492 ft 202 kts 358°
2026-04-25 03:27 -0.19611 -78.35134 9189 ft 187 kts 358°
2026-04-25 03:27 -0.18360 -78.35188 8909 ft 173 kts 358°
2026-04-25 03:28 -0.17212 -78.35237 8605 ft 163 kts 358°
2026-04-25 03:28 -0.16099 -78.35287 8353 ft 158 kts 358°
2026-04-25 03:28 -0.15002 -78.35340 8116 ft 158 kts 358°
2026-04-25 03:28 -0.13915 -78.35384 7904 ft 155 kts 359°
2026-04-25 03:29 -0.13025 -78.35421 7877 ft 88 kts 358°
2026-04-25 03:29 -0.12661 -78.35452 7861 ft 39 kts 352°
2026-04-25 03:29 -0.12476 -78.35520 7849 ft 14 kts 326°
2026-04-25 03:29 -0.12431 -78.35549 7847 ft 0 kts 327°
2026-04-25 03:30 -0.12430 -78.35549 7847 ft 1 kts 327°
2026-04-25 03:30 -0.12418 -78.35591 7842 ft 11 kts 268°
2026-04-25 03:30 -0.12425 -78.35601 7846 ft 6 kts 222°
2026-04-25 03:31 -0.12491 -78.35610 7849 ft 10 kts 186°
2026-04-25 03:31 -0.12546 -78.35611 7852 ft 6 kts 175°
2026-04-25 03:31 -0.12587 -78.35608 7855 ft 9 kts 176°
2026-04-25 03:31 -0.12659 -78.35607 7859 ft 7 kts 190°
2026-04-25 03:32 -0.12670 -78.35612 7859 ft 6 kts 209°
2026-04-25 03:32 -0.12696 -78.35759 7843 ft 19 kts 270°
2026-04-25 03:32 -0.12651 -78.35829 7841 ft 12 kts 348°
2026-04-25 03:32 -0.12626 -78.35834 7843 ft 2 kts 330°
2026-04-25 03:33 -0.12609 -78.35858 7843 ft 5 kts 291°
2026-04-25 03:33 -0.12610 -78.35875 7842 ft 1 kts 266°
2026-04-25 03:33 -0.12611 -78.35883 7842 ft 3 kts 266°
2026-04-25 03:33 -0.12612 -78.35901 7842 ft 2 kts 266°
2026-04-25 03:34 -0.12612 -78.35908 7842 ft 0 kts 266°
2026-04-25 03:34 -0.12613 -78.35912 7842 ft 0 kts 266°